Weather History for Columbus AFB, MS

Change the Weather History Date:

Friday, March 15, 2013

  Actual Average Record
Temperature  
Mean Temperature 58 °F -  
Max Temperature 78 °F 63 °F 84 °F (2012)
Min Temperature 39 °F 43 °F 30 °F (1999)
Degree Days  
Heating Degree Days 7    
Growing Degree Days 8 (Base 50)    
Moisture  
Dew Point 39 °F    
Average Humidity 52    
Maximum Humidity 79    
Minimum Humidity 29    
Precipitation  
Precipitation 0.00 in - - ()
Sea Level Pressure  
Sea Level Pressure 30.12 in    
Wind  
Wind Speed 6 mph (SSW)    
Max Wind Speed 15 mph    
Max Gust Speed 21 mph    
Visibility 10 miles    
Events      
Averages and records for this station are not official NWS values.
T = Trace of Precipitation, MM = Missing Value Source: NWS Daily Summary

Daily Weather History Graph

Daily Weather History Graph

Search for Another Location

Airport:

Trip Planner

Search our weather history database for the weather conditions in past years. The results will help you decide how hot, cold, wet, or windy it might be!

Date:

Astronomy

Mar. 15, 2013 Rise Set
Actual Time 7:03 AM CDT 7:01 PM CDT
Civil Twilight 6:39 AM CDT 7:26 PM CDT
Nautical Twilight 6:10 AM CDT 7:55 PM CDT
Astronomical Twilight 5:41 AM CDT 8:24 PM CDT
Moon 9:06 AM CDT (3/15) 11:01 PM CDT (3/15)
Length of Visible Light 12h 47m
Length of Day
11h 57m
Waxing Crescent, 15% of the Moon is Illuminated
Mar 15
Waxing Crescent
Mar 19
First Quarter
Mar 27
Full
Apr 2
Last Quarter
Apr 10
New

Hourly Weather History & Observations

Time (CDT) Temp. Windchill Dew Point Humidity Pressure Visibility Wind Dir Wind Speed Gust Speed Precip Events Conditions
12:58 AM 39.4 °F 35.2 °F 32.7 °F 77% 30.25 in 10.0 mi SE 5.8 mph - N/A   Clear
1:58 AM 40.6 °F - 33.1 °F 74% 30.24 in 10.0 mi SSE 2.3 mph - N/A   Clear
2:58 AM 40.5 °F 38.4 °F 34.5 °F 79% 30.22 in 10.0 mi South 3.5 mph - N/A   Clear
3:58 AM 39.7 °F 36.5 °F 33.3 °F 78% 30.20 in 10.0 mi SSE 4.6 mph - N/A   Clear
4:58 AM 39.7 °F 36.5 °F 32.9 °F 77% 30.19 in 10.0 mi South 4.6 mph - N/A   Clear
5:58 AM 40.8 °F 37.8 °F 33.3 °F 74% 30.19 in 10.0 mi South 4.6 mph - N/A   Clear
6:48 AM 42.8 °F - 33.8 °F 70% 30.18 in 5.0 mi Calm Calm - N/A   Haze
6:58 AM 42.8 °F - 34.3 °F 72% 30.19 in 7.0 mi Calm Calm - N/A   Clear
7:58 AM 46.6 °F - 36.7 °F 68% 30.20 in 10.0 mi WNW 1.2 mph - N/A   Clear
8:58 AM 52.7 °F - 38.3 °F 58% 30.19 in 10.0 mi SW 5.8 mph - N/A   Clear
9:58 AM 59.7 °F - 40.6 °F 49% 30.18 in 10.0 mi WSW 4.6 mph - N/A   Clear
10:58 AM 66.2 °F - 42.3 °F 42% 30.18 in 10.0 mi WSW 10.4 mph - N/A   Clear
11:58 AM 70.7 °F - 43.7 °F 38% 30.16 in 10.0 mi West 10.4 mph - N/A   Clear
12:58 PM 73.6 °F - 44.4 °F 35% 30.14 in 10.0 mi WNW 12.7 mph 17.3 mph N/A   Clear
1:58 PM 75.0 °F - 43.7 °F 33% 30.11 in 10.0 mi WSW 9.2 mph - N/A   Clear
2:58 PM 77.2 °F - 43.9 °F 31% 30.07 in 10.0 mi SW 8.1 mph 17.3 mph N/A   Clear
3:58 PM 77.5 °F - 43.7 °F 30% 30.05 in 10.0 mi SW 15.0 mph 20.7 mph N/A   Clear
4:58 PM 77.4 °F - 43.3 °F 30% 30.03 in 10.0 mi SW 10.4 mph - N/A   Clear
5:58 PM 75.9 °F - 41.4 °F 29% 30.01 in 10.0 mi SSW 10.4 mph - N/A   Clear
6:58 PM 70.9 °F - 43.2 °F 37% 30.02 in 10.0 mi SSW 8.1 mph - N/A   Clear
7:58 PM 67.5 °F - 42.6 °F 41% 30.01 in 10.0 mi SSW 6.9 mph - N/A   Clear
8:58 PM 64.9 °F - 41.7 °F 43% 30.01 in 10.0 mi South 5.8 mph - N/A   Clear
9:58 PM 63.7 °F - 42.8 °F 47% 30.01 in 10.0 mi South 6.9 mph - N/A   Clear
10:58 PM 64.6 °F - 41.4 °F 43% 30.00 in 10.0 mi South 9.2 mph - N/A   Clear
11:58 PM 62.4 °F - 41.7 °F 47% 29.99 in 10.0 mi South 8.1 mph - N/A   Clear